User: anonymous   Login
Location: Cerda�ola
(41.4919°N, 2.1403°E)
Time: 15:41:39
(UTC+00:00)
Language:

HJ-1C - Orbit

View from above orbital plane
View from above orbital plane
View from above satellite
View from above satellite

Ground track
Ground track

The orbit data is extracted from the following two-line orbital elements,

1 38997U 12064A   21164.07325738  .00003293  00000-0  72906-4 0  9993
2 38997  97.1180 193.1206 0010805 126.5710 317.1979 15.44439174481408
Epoch (UTC): 13 June 2021 01:45:29
Eccentricity: 0.0010805
inclination: 97.1180°
perigee height: 425 km
apogee height: 440 km
right ascension of ascending node: 193.1206°
argument of perigee: 126.5710°
revolutions per day: 15.44439174
mean anomaly at epoch: 317.1979°
orbit number at epoch: 48140

The dashed part of the orbit path shows where the satellite is in the earth's shadow,  

DLR